User: anonymous   Login
Location: Unspecified
(0.0000°N, 0.0000°E)
Time: 20:34:12
(UTC+00:00)
Language:

PLEIADES HR1 - Orbit

View from above orbital plane
View from above orbital plane
View from above satellite
View from above satellite

Ground track
Ground track

The orbit data is extracted from the following two-line orbital elements,

1 38012U 11076F   17088.83372035 -.00000163 +00000-0 -25153-4 0  9996
2 38012 098.2035 165.0488 0001915 115.1850 244.9517 14.58545921281290
Epoch (UTC): 29 March 2017 20:00:33
Eccentricity: 0.0001915
inclination: 98.2035°
perigee height: 696 km
apogee height: 699 km
right ascension of ascending node: 165.0488°
argument of perigee: 115.1850°
revolutions per day: 14.58545921
mean anomaly at epoch: 244.9517°
orbit number at epoch: 28129

The dashed part of the orbit path shows where the satellite is in the earth's shadow,  

DLR